Tracking 25934 objects as of 11-Aug-2022
HD Live streaming from Space Station
objects crossing your sky now

ARIANE 5 DEB

Track ARIANE 5 DEB now!


NORAD ID: 43384
Int'l Code: 2008-030G
Perigee: 397.0 km
Apogee: 35,414.0 km
Inclination: 1.7 °
Period: 627.4 minutes
Semi major axis: 24276 km
RCS: Unknown
Launch date: June 12, 2008
Source: France (FR)
Launch site: FRENCH GUIANA (FRGUI)

Note: This is SATELLITE DEBRIS
aabbcc
Your satellite tracking list
Your tracking list is empty




NASA's NSSDC Master Catalog

Two Line Element Set (TLE):
1 43384U 08030G   22222.51681590  .00000180  00000-0  85480-3 0  9995
2 43384   1.6724 121.9666 7212106  21.5010 357.4945  2.29521316113792
Source of the keplerian elements: AFSPC